Location: Malanoce
(44.2500°N, 7.4667°E)
Time: 23:23:22
(UTC+00:00)

Cosmos 1943 Rocket - Pass Details

Date: 17 November 2025
Orbit: 812 x 841 km, 71.0° (Epoch: 09 December)

Event Time Altitude Azimuth Distance (km) Brightness Sun altitude
Rises 17:40:31 0° 216° (SW) 3,373 6.1 -17.7°
Reaches altitude 10° 17:43:00 10° 221° (SW) 2,440 5.3 -18.1°
Maximum altitude 17:48:30 56° 299° (WNW) 982 2.8 -19.1°
Drops below altitude 10° 17:53:59 10° 18° (NNE) 2,436 4.3 -20.1°
Enters shadow 17:54:08 - 18° (NNE) 2,491 4.4 -20.1°
